This demonstration page uses our WeatherBlox Daily Observations layout. Learn more.

Left ArrowRight Arrow

34.16533, -84.80231

Hourly Observations for October 19, 2020

Temp ( °F °C ) Dew Point ( °F °C ) Humidity (%) Winds ( mph kmh ) Pressure ( in mb ) Visibility ( mi km ) Precip ( " mm )
12:53 am 00:53 Clear 58 14.4 51 10.6 78 78 E 3 6 30.24 1024 10 16 0.00 0.00
1:53 am 01:53 Clear 57 13.9 51 10.6 81 81 Calm 30.23 1024 10 16 0.00 0.00
2:53 am 02:53 Clear 57 13.9 50 10 78 78 Calm 30.23 1024 10 16 0.00 0.00
3:53 am 03:53 Clear 55 12.8 50 10 83 83 Calm 30.22 1023 10 16 0.00 0.00
6:53 am 06:53 Clear 54 12.2 50 10 87 87 E 5 7 30.24 1024 10 16 0.00 0.00
7:26 am 07:26 Mostly Cloudy 54 12.2 50 10 87 87 E 5 7 30.26 1025 10 16 0.00 0.00
7:53 am 07:53 Mostly Cloudy 55 12.8 50 10 83 83 E 3 6 30.24 1024 10 16 0.00 0.00
8:00 am 08:00 Partly Cloudy 54 12.2 50 10 87 87 Calm 30.26 1025 10 16 0.00 0.00
8:53 am 08:53 Sunny 57 13.9 50 10 78 78 VRB 5 7 30.25 1024 10 16 0.00 0.00
9:53 am 09:53 Sunny 61 16.1 51 10.6 70 70 VRB 6 9 30.25 1024 10 16 0.00 0.00
10:53 am 10:53 Sunny 66 18.9 54 12.2 65 65 E 5 7 30.24 1024 10 16 0.00 0.00
11:53 am 11:53 Sunny 70 21.1 56 13.3 61 61 E 6 9 30.24 1024 10 16 0.00 0.00
12:53 pm 12:53 Sunny 72 22.2 57 13.9 59 59 VRB 5 7 30.22 1023 10 16 0.00 0.00
1:53 pm 13:53 Sunny 74 23.3 58 14.4 57 57 VRB 3 6 30.18 1022 10 16 0.00 0.00
2:53 pm 14:53 Sunny 77 25 59 15 54 54 VRB 3 6 30.16 1021 10 16 0.00 0.00
3:53 pm 15:53 Sunny 76 24.4 58 14.4 54 54 VRB 3 6 30.14 1021 10 16 0.00 0.00
4:53 pm 16:53 Sunny 77 25 57 13.9 50 50 Calm 30.14 1021 10 16 0.00 0.00
5:53 pm 17:53 Sunny 75 23.9 59 15 58 58 E 3 6 30.15 1021 10 16 0.00 0.00
6:53 pm 18:53 Sunny 67 19.4 61 16.1 81 81 Calm 30.15 1021 10 16 0.00 0.00
7:53 pm 19:53 Clear 65 18.3 60 15.6 84 84 SE 3 6 30.16 1021 10 16 0.00 0.00
8:53 pm 20:53 Clear 62 16.7 59 15 90 90 Calm 30.17 1022 10 16 0.00 0.00
9:53 pm 21:53 Clear 59 15 57 13.9 93 93 E 3 6 30.19 1022 10 16 0.00 0.00
10:53 pm 22:53 Clear 58 14.4 56 13.3 93 93 Calm 30.19 1022 9 14 0.00 0.00
11:53 pm 23:53 Clear 58 14.4 55 12.8 90 90 Calm 30.18 1022 10 16 0.00 0.00

Powered by AerisWeather